Regional Weather Roundup
Issued by NWS

Home | Current Version | Previous Version | Graphics & Text | Print | Product List | Glossary On
Versions: 1 2 3 4 5 6 7 8 9 10 11 12 13 14 15 16 17 18 19 20 21 22 23 24 25 26 27 28 29 30 31 32 33 34 35 36 37 38 39 40 41 42 43 44 45 46 47 48 49 50
000
ASUS43 KLMK 012202
RWRKY
KENTUCKY REGIONAL WEATHER ROUNDUP
NATIONAL WEATHER SERVICE LOUISVILLE KY
600 PM EDT WED JUL 01 2015

NOTE "FAIR" INDICATES FEW OR NO CLOUDS BELOW 12,000 FEET
WITH NO SIGNIFICANT WEATHER AND/OR OBSTRUCTIONS TO VISIBILITY.

KYZ001>023-026-027-061>063-070>075-012300-
WESTERN AND SOUTH CENTRAL KENTUCKY

CITY           SKY/WX    TMP DP  RH WIND       PRES   REMARKS
PADUCAH        PTSUNNY   82  67  60 SW15G24   29.90R
HENDERSON      MOSUNNY   81  68  65 SW6       29.88R
OWENSBORO      PTSUNNY   82  68  62 CALM      29.88F
HOPKINSVILLE   CLOUDY    78  69  73 SW13      29.93R
BOWLING GREEN  PTSUNNY   81  65  58 SW7       29.91F
GLASGOW        NOT AVBL
$$

KYZ024-025-028>034-038-045-046-053-012300-
NORTH CENTRAL KENTUCKY

CITY           SKY/WX    TMP DP  RH WIND       PRES   REMARKS
LOUISVILLE/SDF PTSUNNY   80  68  66 NW5       29.89S
LOUISVILLE/LOU PTSUNNY   77  67  71 W3        29.90F
FORT KNOX      PTSUNNY   75  69  79 W6        29.89F
$$

KYZ035>037-039>044-047>052-055>060-089>105-012300-
NORTHEAST KENTUCKY

CITY           SKY/WX    TMP DP  RH WIND       PRES   REMARKS
LEXINGTON      CLOUDY    73  68  84 NE5       29.93S HAZE
COVINGTON      CLOUDY    78  63  59 CALM      29.90F
FRANKFORT      CLOUDY    71  65  81 CALM      29.90F HAZE
$$

KYZ054-064>069-076>088-106>120-012300-
SOUTHEAST KENTUCKY

CITY           SKY/WX    TMP DP  RH WIND       PRES   REMARKS
JACKSON        CLOUDY    73  67  81 CALM      29.96S
LONDON         CLOUDY    71  65  81 S9        29.96F
SOMERSET       NOT AVBL
MIDDLESBORO    NOT AVBL
MONTICELLO     CLOUDY    78  71  79 S9        29.95F
$$




USA.gov is the U.S. government's official web portal to all federal, state and local government web resources and services.